KDAWKIWI

Guest
Details From KDAW - SKYHAVEN
To KIWI - Wiscasset
Flight Number -
Tags generated
Created
Modified
Stats Distance 67 nm / 124 km
Max Altitude 5,300 ft / 1,615 m
Waypoints 3
Social Downloads 0
Likes 0
Share VATSIM

Download

Looking for another format? Having issues loading an existing format? Contact us
Advertisement - Login to hide

Notes

Basic altitude profile: - Ascent Rate: 2500ft/min - Ascent Speed: 250kts - Cruise Altitude: 35000ft - Cruise Speed: 420kts - Descent Rate: 1500ft/min - Descent Speed: 250kts Options: - Use NATs: yes - Use PACOTS: yes - Use low airways: yes - Use high airways: yes

Route

KDAW BOOTS KIWI

ID Type Via Altitude Latitude Longitude Leg Dist Tot Dist Heading (true) Name
O KDAW APT - 0 ft / 0 m 43.28406˚ -70.92926˚ - 0 nm - SKYHAVEN
BOOTS FIX - 5,300 ft / 1,615 m 43.72989˚ -70.18891˚ 41 nm 41 nm 50° / 51° -
O KIWI APT - 0 ft / 0 m 43.96128˚ -69.71252˚ 24 nm 66 nm 56° / 56° Wiscasset

Altitude Profile

Advertisement - Login to hide

KDAW

Details ICAO KDAW
Name SKYHAVEN
Region United States
Timezone America/New_York (UTC-4.0)
Stats Elevation 322 ft / 98 m (AMSL)
Location 43.284061° -70.929255°
Runways 1
Magnetic Variation 14.919° W

METAR

KDAW 271551Z AUTO 08011KT 10SM OVC065 14/07 A3024 RMK AO2 SLP237 T01390067

Decode

TAF

Not found

Departure Runways

ID Width Length Bearing (true) Bearing (mag) Surface Threshold Offset Overrun Length
15 100 ft / 30 m 3,996 ft / 1,218 m 130.95° 145.87° Asphalt 0 ft / 0 m 0 ft / 0 m
33 100 ft / 30 m 3,996 ft / 1,218 m 310.96° 325.88° Asphalt 0 ft / 0 m 0 ft / 0 m

KIWI

Details ICAO KIWI
Name Wiscasset
Region United States
Timezone America/New_York (UTC-4.0)
Stats Elevation 74 ft / 23 m (AMSL)
Location 43.961279° -69.712516°
Runways 2
Magnetic Variation 15.565° W

METAR

KIWI 271553Z AUTO 09008KT 10SM OVC080 13/02 A3031 RMK AO2 SLP262 T01280022

Decode

TAF

Not found

Destination Runways

ID Width Length Bearing (true) Bearing (mag) Surface Threshold Offset Overrun Length
25 75 ft / 23 m 3,394 ft / 1,034 m 231.62° 247.19° Asphalt 0 ft / 0 m 0 ft / 0 m
25R 49 ft / 15 m 2,107 ft / 642 m 231.31° 246.88° Grass 0 ft / 0 m 0 ft / 0 m
7 75 ft / 23 m 3,394 ft / 1,034 m 51.61° 67.18° Asphalt 0 ft / 0 m 0 ft / 0 m
7L 49 ft / 15 m 2,107 ft / 642 m 51.31° 66.88° Grass 0 ft / 0 m 0 ft / 0 m